Regional Weather Roundup
Issued by NWS

Home | Current Version | Previous Version | Text Only | Print | Product List | Glossary On
Versions: 1 2 3 4 5 6 7 8 9 10 11 12 13 14 15 16 17 18 19 20 21 22 23 24 25 26 27 28 29 30 31 32 33 34 35 36 37 38 39 40 41 42 43 44 45 46 47 48 49 50
000
ASUS44 KJAN 031910
RWRMS

MISSISSIPPI HOURLY WEATHER ROUNDUP
NATIONAL WEATHER SERVICE JACKSON MS
100 PM CST TUE MAR 03 2015

NOTE: "FAIR: INDICATES FEW OR NO CLOUDS BELOW 12,000 FEET WITH NO
SIGNIFICANT WEATHER AND/OR OBSTRUCTIONS TO VISIBILITY.

MSZ001>002-007>008-010>013-018>021-025>028-034>036-032000-
NORTHWEST MISSISSIPPI

CITY           SKY/WX    TMP DP  RH WIND       PRES   REMARKS
CLARKSDALE     CLOUDY    52  52 100 SW6       30.03F VSB 3/4
CLEVELAND      FOG       54  54 100 SW5       30.02F VSB 1/4
GREENWOOD      CLOUDY    72  65  78 SW12      30.02F
GREENVILLE     FOG       57  55  93 SW8       30.02F VSB 1/2
OLIVE BRANCH   CLOUDY    54  54 100 S10       30.02F FOG
OXFORD         FOG       57  57 100 SE6       30.04F VSB 3/4
TUNICA         LGT RAIN  52  52 100 SW10      30.03F
$$

MSZ003>006-009-014>017-022>024-029>033-037>039-032000-
NORTHEAST MISSISSIPPI

CITY           SKY/WX    TMP DP  RH WIND       PRES   REMARKS
COLUMBUS AFB   CLOUDY    61  61 100 S6        30.05F FOG
CORINTH        CLOUDY    57  55  94 S8        30.03F FOG
GOLDN TRIANGLE CLOUDY    63  61  94 S7        30.06F
STARKVILLE     CLOUDY    64  63  94 S5        30.05F
TUPELO         CLOUDY    57  56  96 S6        30.05F FOG
$$

MSZ040-058-032000-
CENTRAL MISSISSIPPI

CITY           SKY/WX    TMP DP  RH WIND       PRES   REMARKS
JACKSON INTL   PTSUNNY   74  65  73 S16       30.04F
JACKSON HAWKNS CLOUDY    73  65  75 S10       30.04F
MERIDIAN KEY   CLOUDY    70  66  87 S12       30.08F
MERIDIAN NAS   CLOUDY    71  65  81 S7        30.08F
VICKSBURG      CLOUDY    74  65  73 S8        30.03F
$$

MSZ059>079-032000-
SOUTH MISSISSIPPI

CITY           SKY/WX    TMP DP  RH WIND       PRES   REMARKS
BROOKHAVEN     CLOUDY    73  73 100 S9        30.07F
HATTIESBURG    CLOUDY    76  65  68 S9        30.08F
MCCOMB         CLOUDY    75  66  73 S14G20    30.05F
NATCHEZ        CLOUDY    73  68  83 S10       30.04F
PINE BELT      PTSUNNY   73  64  73 S12       30.09F
$$

MSZ080>082-032000-
COASTAL MISSISSIPPI

CITY           SKY/WX    TMP DP  RH WIND       PRES   REMARKS
BAY ST LOUIS   PTSUNNY   72  63  73 SE12G20   30.11F
BILOXI         MOSUNNY   72  66  81 SE13      30.11F
PASCAGOULA     CLOUDY    71  64  78 SE10      30.12F
GULFPORT       CLOUDY    69  64  84 SE15      30.11F
$$


USA.gov is the U.S. government's official web portal to all federal, state and local government web resources and services.